[[{"header":{"parameterUnit":"m.s-1","parameterCategory":1,"la1":30.2991,"la2":30.254,"lo1":-89.0895,"lo2":-89.0444,"dy":0.0017,"dx":0.0017,"nx":28,"ny":28,"refTime":"2025-11-27T09:00:00:Z","depth":0,"parameterNumber":2,"parameterNumberName":"U-component_of_WINDS"},"data":[0,0,0,0,0,0,0,0,0,0,0,0,0,0,0,0,0,0,0,0,0,0,0,0,0,0,0,0,0,0,0,0,0,0,0,0,0,0,0,0,0,0,0,0,0,0,0,0,0,0,0,0,0,0,0,0,0,0,-0.1041,-0.1042,0,-0.1093,-0.1094,-0.1095,-0.1058,-0.1056,-0.1055,-0.1053,-0.111,-0.1113,-0.1116,0,0,0,0,0,0,0,0,0,0,0,0,0,-0.0911,-0.0914,-0.1041,-0.1042,-0.1042,-0.1093,-0.1094,-0.1095,-0.1058,-0.1056,-0.1054,-0.1053,-0.1109,-0.1113,-0.1116,0,0,0,0,0,0,0,0,0,0,0,0,0,-0.0966,-0.0915,-0.1041,-0.103,-0.103,-0.1093,-0.1094,-0.1095,-0.1059,-0.1056,-0.1054,-0.1052,-0.1108,-0.1112,-0.1117,-0.1194,0,0,-0.1131,-0.1133,0,0,0,0,0,0,0,0,-0.0963,-0.0971,-0.1031,-0.1031,-0.1031,-0.1067,-0.1069,-0.1128,-0.1059,-0.1048,-0.1053,-0.105,-0.1098,-0.1103,-0.1118,-0.1197,-0.12,-0.1131,-0.1134,-0.1136,-0.1137,0,0,0,0,0,0,0,-0.0959,-0.0969,-0.1062,-0.1032,-0.1032,-0.1023,-0.1029,-0.108,-0.1086,-0.1049,-0.1046,-0.1053,-0.1097,-0.1114,-0.1119,-0.12,-0.1131,-0.1135,-0.1138,-0.114,-0.1345,-0.1348,0,0,0,0,0,0,-0.0956,-0.0966,-0.106,-0.1063,-0.099,-0.1028,-0.1033,-0.1058,-0.1085,-0.1087,-0.1055,-0.1051,-0.1107,-0.1114,-0.1121,-0.1215,-0.1136,-0.114,-0.1143,-0.1343,-0.1346,-0.1349,0,0,0,0,0,0,-0.0954,-0.0965,-0.1058,-0.1014,-0.1025,-0.1033,-0.106,-0.106,-0.1077,-0.109,-0.1091,-0.1071,-0.1106,-0.1115,-0.1176,-0.1216,-0.1142,-0.1146,-0.1339,-0.1344,-0.1347,-0.1402,0,0,0,0,0,0,-0.095,-0.0964,-0.0994,-0.1015,-0.1027,-0.1112,-0.1062,-0.1063,-0.1084,-0.108,-0.1105,-0.1107,-0.1105,-0.117,-0.1181,-0.1221,-0.115,-0.1336,-0.1341,-0.1346,-0.1397,-0.1407,-0.1417,0,0,0,0,0,-0.0946,-0.1008,-0.0995,-0.1007,-0.1064,-0.1114,-0.1122,-0.1116,-0.1088,-0.1118,-0.1126,-0.1106,-0.1209,-0.1176,-0.1189,-0.1231,-0.1333,-0.134,-0.1346,-0.1392,-0.1405,-0.1416,0,0,0,0,0,0,-0.0993,-0.101,-0.0997,-0.1067,-0.1089,-0.1108,-0.1146,-0.113,-0.1162,-0.1156,-0.1149,-0.1155,-0.122,-0.1231,-0.1194,-0.1307,-0.1267,-0.1276,-0.1298,-0.1311,-0.132,-0.1318,-0.1154,0,0,0,0,0,-0.1011,-0.1049,-0.1063,-0.1124,-0.1135,-0.1138,-0.116,-0.1154,-0.1177,-0.1186,-0.1199,-0.1223,-0.126,-0.1286,-0.1321,-0.1397,-0.1403,-0.1432,-0.1442,-0.145,-0.1459,-0.15,-0.1514,-0.1369,-0.1369,-0.1369,0,0,-0.105,-0.1064,-0.1089,-0.1133,-0.115,-0.1191,-0.1147,-0.1192,-0.1222,-0.1194,-0.1253,-0.1262,-0.1288,-0.1357,-0.1389,-0.1369,-0.1499,-0.1458,-0.1464,-0.1469,-0.1508,-0.1522,-0.1534,-0.1373,-0.1372,-0.1372,0,0,-0.1142,-0.1156,-0.1209,-0.1225,-0.125,-0.1251,-0.1264,-0.1284,-0.129,-0.1348,-0.1327,-0.1363,-0.1428,-0.1447,-0.1466,-0.1563,-0.1547,-0.1574,-0.1628,-0.1668,-0.168,-0.169,-0.1726,-0.1739,-0.1582,-0.1583,-0.1583,0,-0.1188,-0.1248,-0.1238,-0.1284,-0.1305,-0.1278,-0.1332,-0.1349,-0.1385,-0.14,-0.1376,-0.1456,-0.1472,-0.1546,-0.1569,-0.1584,-0.1599,-0.1573,-0.1678,-0.1689,-0.1698,-0.1732,-0.1746,-0.1586,-0.1585,-0.1585,-0.1585,0,-0.1304,-0.1345,-0.1385,-0.1418,-0.1443,-0.1493,-0.1491,-0.1517,-0.1508,-0.1512,-0.1572,-0.1589,-0.1627,-0.1643,-0.1635,-0.1716,-0.1703,-0.1679,-0.1639,-0.1715,-0.1748,-0.1761,-0.1591,-0.1589,-0.1588,-0.1588,0,0,-0.143,-0.1456,-0.1471,-0.1486,-0.151,-0.1542,-0.159,-0.1627,-0.165,-0.1674,-0.1716,-0.177,-0.1748,-0.1768,-0.1762,-0.1797,-0.1874,-0.1769,-0.1769,-0.179,-0.1965,-0.1985,-0.2,-0.1862,-0.1864,-0.1866,-0.1964,0,-0.1525,-0.1609,-0.1601,-0.1681,-0.172,-0.1694,-0.1736,-0.1756,-0.176,-0.1794,-0.1798,-0.1838,-0.1804,-0.1817,-0.185,-0.1858,-0.191,-0.185,-0.1902,-0.1904,-0.1899,-0.2017,-0.2038,-0.2129,-0.1976,-0.1978,-0.198,0,-0.1648,-0.1676,-0.176,-0.1777,-0.1793,-0.1831,-0.1864,-0.1896,-0.1917,-0.1918,-0.194,-0.1927,-0.1976,-0.1932,-0.2,-0.196,-0.198,-0.1986,-0.199,-0.1997,-0.1949,-0.2029,-0.2158,-0.2173,-0.1999,-0.1998,-0.1996,0,-0.1734,-0.1792,-0.185,-0.1863,-0.1885,-0.1912,-0.1923,-0.1941,-0.1964,-0.1992,-0.2006,-0.2039,-0.2059,-0.2085,-0.2081,-0.2049,-0.2151,-0.2107,-0.2154,-0.2155,-0.218,-0.2179,-0.2316,-0.2188,-0.2188,-0.2188,-0.2187,0,-0.1843,-0.1896,-0.1889,-0.1925,-0.1983,-0.1972,-0.2031,-0.2038,-0.2054,-0.2091,-0.207,-0.2106,-0.2097,-0.2133,-0.213,-0.2187,-0.2195,-0.2198,-0.2197,-0.2202,-0.2202,-0.2217,-0.2212,-0.2191,-0.219,-0.219,-0.2189,0,-0.1951,-0.1948,-0.201,-0.2024,-0.2029,-0.2072,-0.2084,-0.2118,-0.2119,-0.2167,-0.2177,-0.218,-0.222,-0.2218,-0.2264,-0.2261,-0.2333,-0.2323,-0.2326,-0.2325,-0.2373,-0.2369,-0.2527,-0.2548,-0.2405,-0.2406,-0.2407,0,-0.2022,-0.2062,-0.208,-0.2103,-0.2115,-0.2152,-0.2174,-0.2164,-0.2188,-0.2214,-0.2245,-0.2283,-0.2313,-0.2379,-0.2385,-0.242,-0.2412,-0.2465,-0.2418,-0.2421,-0.2416,-0.2414,-0.2419,-0.2476,-0.2477,-0.2479,-0.248,0,-0.2149,-0.2145,-0.2177,-0.2209,-0.2235,-0.226,-0.2282,-0.2302,-0.2295,-0.2322,-0.2363,-0.2386,-0.2431,-0.247,-0.2502,-0.2513,-0.2496,-0.2494,-0.2507,-0.2513,-0.2514,-0.2516,-0.2354,-0.2491,-0.249,-0.2489,-0.2489,-0.2488,-0.2242,-0.2276,-0.2294,-0.2331,-0.2346,-0.2367,-0.24,-0.2404,-0.2437,-0.2473,-0.2465,-0.2511,-0.253,-0.2572,-0.2586,-0.2621,-0.2603,-0.2621,-0.2627,-0.2632,-0.2639,-0.2506,-0.2627,-0.2627,-0.2626,-0.2626,-0.2626,0,-0.237,-0.2379,-0.2413,-0.2444,-0.2473,-0.2451,-0.2474,-0.25,-0.254,-0.2559,-0.2588,-0.2634,-0.2671,-0.2679,-0.2714,-0.2741,-0.2734,-0.2751,-0.275,-0.2753,-0.2652,-0.2638,-0.2756,-0.2756,-0.2756,-0.2756,-0.2756,-0.2756,-0.244,-0.2497,-0.2495,-0.2559,-0.2568,-0.2612,-0.2628,-0.2647,-0.2662,-0.2714,-0.2744,-0.2748,-0.2763,-0.2798,-0.2831,-0.2832,-0.2847,-0.2868,-0.2866,-0.2773,-0.276,-0.2748,-0.2735,-0.2871,-0.2871,-0.2964,-0.2965,-0.2966]},{"header":{"parameterUnit":"m.s-1","parameterCategory":1,"la1":30.2991,"la2":30.254,"lo1":-89.0895,"lo2":-89.0444,"dy":0.0017,"dx":0.0017,"nx":28,"ny":28,"refTime":"2025-11-27T09:00:00:Z","depth":0,"parameterNumber":3,"parameterNumberName":"V-component_of_WINDS"},"data":[0,0,0,0,0,0,0,0,0,0,0,0,0,0,0,0,0,0,0,0,0,0,0,0,0,0,0,0,0,0,0,0,0,0,0,0,0,0,0,0,0,0,0,0,0,0,0,0,0,0,0,0,0,0,0,0,0,0,-6.712,-6.7122,0,-6.7289,-6.7291,-6.7293,-6.7193,-6.7188,-6.7183,-6.7179,-6.7347,-6.7356,-6.7364,0,0,0,0,0,0,0,0,0,0,0,0,0,-6.6705,-6.6713,-6.712,-6.7122,-6.7124,-6.7289,-6.7291,-6.7294,-6.7194,-6.7188,-6.7182,-6.7177,-6.7344,-6.7355,-6.7365,0,0,0,0,0,0,0,0,0,0,0,0,0,-6.6881,-6.6716,-6.712,-6.7094,-6.7094,-6.7289,-6.7291,-6.7294,-6.7195,-6.7188,-6.7181,-6.7174,-6.734,-6.7354,-6.7367,-6.7594,0,0,-6.7408,-6.7414,0,0,0,0,0,0,0,0,-6.6871,-6.6896,-6.7096,-6.7096,-6.7096,-6.7213,-6.7207,-6.7395,-6.7197,-6.7156,-6.7179,-6.717,-6.7308,-6.7323,-6.7371,-6.7602,-6.7609,-6.7409,-6.7417,-6.7423,-6.7427,0,0,0,0,0,0,0,-6.6859,-6.6888,-6.7187,-6.7099,-6.7099,-6.7073,-6.709,-6.7242,-6.727,-6.7159,-6.7153,-6.7174,-6.7306,-6.7358,-6.7374,-6.7612,-6.7409,-6.7421,-6.7429,-6.7434,-6.8038,-6.8046,0,0,0,0,0,0,-6.6849,-6.6879,-6.7181,-6.7192,-6.6964,-6.7086,-6.7105,-6.7183,-6.7268,-6.7275,-6.718,-6.7169,-6.7339,-6.7359,-6.738,-6.7652,-6.7423,-6.7435,-6.7443,-6.803,-6.804,-6.8048,0,0,0,0,0,0,-6.6841,-6.6877,-6.7175,-6.7034,-6.7069,-6.7101,-6.7189,-6.719,-6.7241,-6.7284,-6.7288,-6.7228,-6.7334,-6.7361,-6.7542,-6.7656,-6.7442,-6.7454,-6.8021,-6.8033,-6.8044,-6.8199,0,0,0,0,0,0,-6.6829,-6.6875,-6.6963,-6.7036,-6.7077,-6.7336,-6.7196,-6.7198,-6.7266,-6.7252,-6.7331,-6.7336,-6.733,-6.7523,-6.7555,-6.7671,-6.7464,-6.8011,-6.8026,-6.804,-6.8183,-6.8214,-6.8241,0,0,0,0,0,-6.6815,-6.6998,-6.6968,-6.7005,-6.7189,-6.7343,-6.7366,-6.7357,-6.7275,-6.7363,-6.7391,-6.7334,-6.7639,-6.7542,-6.7578,-6.77,-6.8003,-6.8022,-6.8039,-6.8171,-6.8208,-6.824,0,0,0,0,0,0,-6.6936,-6.7008,-6.6974,-6.7188,-6.7261,-6.7326,-6.7437,-6.7397,-6.7493,-6.7477,-6.7459,-6.7478,-6.7667,-6.7701,-6.7592,-6.7924,-6.7808,-6.7834,-6.7895,-6.7932,-6.796,-6.7948,-6.7475,0,0,0,0,0,-6.6987,-6.7109,-6.7164,-6.7347,-6.7385,-6.7405,-6.7472,-6.7459,-6.7533,-6.7562,-6.7603,-6.7675,-6.7787,-6.7861,-6.7966,-6.8187,-6.8203,-6.8289,-6.8317,-6.8341,-6.8363,-6.8483,-6.8522,-6.8107,-6.8107,-6.8107,0,0,-6.7095,-6.7149,-6.7227,-6.7373,-6.7427,-6.7552,-6.7432,-6.7568,-6.766,-6.7582,-6.7757,-6.7789,-6.7868,-6.8071,-6.8162,-6.8105,-6.8481,-6.8363,-6.8382,-6.8392,-6.8505,-6.8545,-6.8579,-6.8119,-6.8117,-6.8115,0,0,-6.7355,-6.7409,-6.7567,-6.7625,-6.771,-6.7722,-6.776,-6.7832,-6.7851,-6.8026,-6.7971,-6.8078,-6.8271,-6.833,-6.8386,-6.8668,-6.862,-6.8703,-6.8853,-6.897,-6.9002,-6.9031,-6.9132,-6.9168,-6.8725,-6.8726,-6.8726,0,-6.7478,-6.7665,-6.7653,-6.7795,-6.7861,-6.7797,-6.7957,-6.8013,-6.8127,-6.8173,-6.8108,-6.8349,-6.8398,-6.8614,-6.8683,-6.8729,-6.8771,-6.8694,-6.8999,-6.9028,-6.9054,-6.915,-6.9188,-6.8735,-6.8734,-6.8733,-6.8732,0,-6.7812,-6.7943,-6.806,-6.8175,-6.8253,-6.8403,-6.8412,-6.8493,-6.8472,-6.8491,-6.8669,-6.8726,-6.8841,-6.8891,-6.8872,-6.9105,-6.9067,-6.9001,-6.8884,-6.9104,-6.9194,-6.923,-6.8749,-6.8746,-6.8743,-6.874,0,0,-6.8154,-6.826,-6.8303,-6.8354,-6.8443,-6.8543,-6.8689,-6.8805,-6.8874,-6.8955,-6.9076,-6.9241,-6.9181,-6.9244,-6.923,-6.9333,-6.9554,-6.9254,-6.9256,-6.9308,-6.9813,-6.9862,-6.9905,-6.9521,-6.9528,-6.9534,-6.9806,0,-6.842,-6.8678,-6.8671,-6.8911,-6.9031,-6.8972,-6.9099,-6.9167,-6.9188,-6.9292,-6.9313,-6.9431,-6.9343,-6.938,-6.9479,-6.9506,-6.9655,-6.9486,-6.9633,-6.9639,-6.9616,-6.9952,-7.0005,-7.026,-6.9841,-6.9847,-6.9852,0,-6.8765,-6.8859,-6.9112,-6.9183,-6.9233,-6.9348,-6.9453,-6.9553,-6.9628,-6.9636,-6.9707,-6.9677,-6.9824,-6.9703,-6.9904,-6.979,-6.9849,-6.9871,-6.9881,-6.9895,-6.9759,-6.9975,-7.034,-7.0379,-6.9907,-6.9902,-6.9898,0,-6.8989,-6.9179,-6.9355,-6.94,-6.9488,-6.957,-6.961,-6.9678,-6.9748,-6.9838,-6.9883,-6.9989,-7.0047,-7.0129,-7.0128,-7.004,-7.0333,-7.0211,-7.0342,-7.0343,-7.0407,-7.0403,-7.0787,-7.0445,-7.0444,-7.0444,-7.0443,0,-6.9288,-6.9444,-6.9457,-6.9565,-6.9738,-6.9728,-6.9899,-6.9931,-6.9992,-7.0103,-7.0058,-7.0164,-7.0156,-7.0262,-7.0262,-7.0429,-7.0455,-7.0465,-7.0463,-7.047,-7.0469,-7.0509,-7.0491,-7.0454,-7.0451,-7.0449,-7.0448,0,-6.9568,-6.9583,-6.977,-6.9839,-6.9859,-6.9984,-7.0041,-7.0143,-7.016,-7.0302,-7.0335,-7.0361,-7.0484,-7.0491,-7.0632,-7.0632,-7.0835,-7.0813,-7.0811,-7.0807,-7.0938,-7.0926,-7.1362,-7.1418,-7.1039,-7.1043,-7.1046,0,-6.9758,-6.9877,-6.9959,-7.0032,-7.0077,-7.0194,-7.0266,-7.0259,-7.0335,-7.043,-7.052,-7.0639,-7.0734,-7.0932,-7.0963,-7.107,-7.1051,-7.1196,-7.1067,-7.1069,-7.1053,-7.1047,-7.1058,-7.1222,-7.1226,-7.1229,-7.1232,0,-7.0093,-7.0095,-7.02,-7.0309,-7.0396,-7.0481,-7.0559,-7.0621,-7.0624,-7.0711,-7.0837,-7.0911,-7.1056,-7.1174,-7.1279,-7.1318,-7.1276,-7.1273,-7.1309,-7.1317,-7.1311,-7.1316,-7.088,-7.1263,-7.126,-7.1257,-7.1256,-7.1254,-7.0334,-7.0438,-7.0512,-7.0631,-7.069,-7.0765,-7.0864,-7.0894,-7.1,-7.1119,-7.1108,-7.1248,-7.1318,-7.1455,-7.1502,-7.161,-7.1561,-7.1613,-7.1626,-7.1639,-7.1654,-7.1293,-7.1629,-7.1628,-7.1627,-7.1627,-7.1626,0,-7.0668,-7.0712,-7.0822,-7.0935,-7.1028,-7.0982,-7.1067,-7.1147,-7.1272,-7.1342,-7.1437,-7.1582,-7.1696,-7.1736,-7.1847,-7.1926,-7.1909,-7.1955,-7.1949,-7.1959,-7.1691,-7.1649,-7.1967,-7.1966,-7.1966,-7.1966,-7.1966,-7.1966,-7.0852,-7.1025,-7.1036,-7.1237,-7.1279,-7.1418,-7.147,-7.1539,-7.1595,-7.1759,-7.1855,-7.1881,-7.1939,-7.2053,-7.2156,-7.2164,-7.2207,-7.2262,-7.2262,-7.2012,-7.1978,-7.1945,-7.1905,-7.2271,-7.2271,-7.252,-7.2523,-7.2525]}]]